Location: Doschendorf
(50.0069°N, 11.0602°E)
Time: 21:52:08
(UTC+00:00)

USA 215 - Pass Details

Date: 17 November 2019
Orbit: 1101 x 1107 km, 123.0° (Epoch: 02 December)

Event Time Altitude Azimuth Distance (km) Brightness Sun altitude
Exits shadow 18:14:46 58° 96° (E) 1,269 3.2 -26.3°
Maximum altitude 18:16:08 78° 27° (NNE) 1,129 3.1 -26.5°
Drops below altitude 10° 18:22:41 10° 302° (WNW) 2,965 6.3 -27.6°
Sets 18:25:10 0° 302° (WNW) 3,924 7.1 -28.0°
